www.pogodaiklimat.ru
Время
(UTC), дата
15 28.11
18 28.11
21 28.11
00 29.11
03 29.11
06 29.11
09 29.11
12 29.11
15 29.11
18 29.11
21 29.11
00 30.11
03 30.11
06 30.11
09 30.11
12 30.11
15 30.11
18 30.11
21 30.11
00 1.12
03 1.12
06 1.12
09 1.12
12 1.12
15 1.12
18 1.12
21 1.12
00 2.12
03 2.12
06 2.12
09 2.12
12 2.12
15 2.12
18 2.12
21 2.12
00 3.12
03 3.12
06 3.12
09 3.12
12 3.12
15 3.12
18 3.12
21 3.12
00 4.12
03 4.12
06 4.12
09 4.12
12 4.12
15 4.12
18 4.12
21 4.12
00 5.12
03 5.12
06 5.12
09 5.12
12 5.12
Ветер
(напр.,м/с)
Видим. Явления Облачность Т
(С)
Тd
(С)
f
(%)
Тe
(С)
Тes
(С)
Комфортность P
(гПа)
Po
(гПа)
Тmin
(С)
Tmax
(С)
R
(мм)
R24
(мм)
S
(см)
З 7
{11}
20 км 3/3 600 м
[Sc]
-15.2 -23.7 48 -26 -26 очень
холодно
1014.8 1008.6
СЗ 7
{10}
20 км 3/0
[Ac trans]
-16.0 -23.8 51 -27 -27 очень
холодно
1014.8 1008.6
З 8-11
{12}
20 км 5/5 600 м
[Sc]
-15.6 -23.1 53 -27 -27 очень
холодно
1014.7 1008.5 -16.5 34
З 8-11
{12}
50 км 5/1 600 м
[Sc As op]
-14.4 -22.1 52 -25 -25 очень
холодно
1014.9 1008.8
З 6
{12}
50 км 4/0
[Ci fib]
-12.3 -21.2 47 -21 -21 холодно 1014.5 1008.4
З 5
{10}
50 км 8/0
[Ac trans Ci fib]
-11.1 -19.2 51 -19 -19 холодно 1013.4 1007.3
З 8-12
{12}
20 км 3/0
[Ac trans]
-11.8 -19.8 51 -22 -22 очень
холодно
1012.9 1006.8 -11.0
СЗ 6
{12}
20 км 10/8 600 м
[Sc Ci sp]
-11.7 -18.5 57 -20 -20 прохладно 1013.3 1007.3
З 6-10
{12}
20 км 10/8 600 м
[Sc Ci sp]
-11.6 -17.7 61 -20 -20 прохладно 1013.3 1007.2
СЗ 7-10
{11}
10 км слаб. снег 8/6 600 м
[Sc Ci sp]
-11.4 -17.4 61 -21 -21 холодно 1014.0 1007.9
З 5
{10}
2000 м слаб. ливневой снег 10/10 600 м
[Cb cap]
-10.2 -14.8 69 -18 -18 по сезону 1014.2 1008.2 -12.4 0.2 32
З 8-11
{12}
50 км {ливн. осадки, снег} 4/4 600 м
[Cb cap]
-11.3 -18.1 57 -21 -21 по сезону 1014.9 1008.8
З 6
{13}
50 км 8/0
[Ac As]
-9.1 -18.7 46 -17 -17 по сезону 1014.3 1008.3
З 5
{11}
50 км 6/0
[Ci sp]
-9.0 -17.9 48 -16 -16 по сезону 1014.1 1008.1
З 7 20 км 3/0
[Ci fib]
-9.6 -18.2 49 -18 -18 по сезону 1014.0 1008.0 -8.3
СЗ 5
{11}
20 км ясно -11.0 -19.0 52 -19 -19 по сезону 1014.7 1008.6
СЗ 8-11
{11}
20 км ясно -11.8 -19.2 54 -22 -22 по сезону 1014.8 1008.7
З 4
{11}
20 км ясно -13.3 -19.8 58 -21 -21 по сезону 1014.9 1008.8
З 2 20 км ясно -17.2 -20.3 77 -23 -23 по сезону 1015.1 1008.8 -17.4 33
штиль 0 50 км ясно -18.0 -21.3 75 -18 -18 по сезону 1015.6 1009.3 -20.9
З 2 50 км 3/0
[Ci fib]
-13.8 -18.9 65 -19 -17 по сезону 1014.8 1008.7
штиль 0 50 км 8/3 600 м
[Sc Ac trans Ci fib]
-13.9 -19.0 65 -14 -14 по сезону 1014.8 1008.7
З 1 20 км 4/0
[Ci fib]
-17.1 -19.6 81 -20 -20 по сезону 1016.4 1010.2 -12.9
СЗ 2 4000 м слаб. ливневой снег 10/10 600 м
[Cb cap]
-15.6 -19.0 75 -21 -21 по сезону 1017.9 1011.7
СЗ 2 4000 м слаб. ливневой снег 10/8 600 м
[Cb cap Ac cuf]
-17.4 -20.0 80 -23 -23 по сезону 1018.7 1012.5
штиль 0 4000 м слаб. ливневой снег 10/10 600 м
[Cb cap]
-19.1 -20.7 87 -19 -19 по сезону 1019.0 1012.7
штиль 0 20 км {ливн. осадки} 8/4 600 м
[Cb cap Ac cuf Ci sp]
-19.6 -21.8 83 -20 -20 по сезону 1018.9 1012.7 -20.0 0.3 30
штиль 0 50 км {ливн. осадки} 10/1 600 м
[Sc Ac trans Ci fib]
-19.1 -21.3 83 -19 -19 по сезону 1018.9 1012.6 -21.4
штиль 0 50 км 6/1 1000 м
[Sc Ac trans Ci fib]
-13.9 -18.6 68 -14 -13 тепло 1016.9 1010.7
штиль 0 50 км 9/3 1000 м
[Sc Ac trans Ci sp]
-12.1 -14.8 80 -12 -12 тепло 1015.9 1009.8
штиль 0 20 км 10/4 600 м
[Sc Ac trans Ci sp]
-11.1 -14.0 79 -11 -11 тепло 1015.1 1009.1 -10.3
штиль 0 10 км слаб. снег 10/10 600 м
[Sc]
-10.3 -12.0 87 -11 -11 тепло 1013.2 1007.1
штиль 0 2000 м слаб. ливневой снег 10/10 600 м
[Cb cap]
-9.2 -10.3 92 -10 -10 тепло 1010.1 1004.1
штиль 0 4000 м слаб. ливневой снег 10/10 600 м
[Cb cap]
-9.4 -10.5 92 -10 -10 тепло 1006.9 1000.9
штиль 0 2000 м слаб. ливневой снег 10/10 600 м
[Cb cap]
-10.9 -12.1 91 -11 -11 тепло 1003.4 997.4 -11.3 4 34
штиль 0 500 м ливневой снег 10/10 600 м
[Cb cap]
-3.7 -4.4 95 -5 -5 тепло 999.9 994.1
СВ 2
{11}
200 м ливневой снег 10/10 600 м
[Cb cap]
-3.5 -4.1 96 -8 -8 тепло 995.6 989.9
СВ 1 200 м ливневой снег {метель} 10/10 600 м
[Cb cap]
-3.6 -4.3 95 -6 -6 тепло 993.0 987.2
СВ 6-13
{16}
200 м ливневой снег {метель} 10/10 600 м
[Cb cap]
-3.1 -4.0 93 -11 -11 тепло 990.5 984.7 -3.1 12
СВ 8-15
{20}
200 м ливневой снег {метель} 10/10 600 м
[Cb cap]
-3.3 -4.8 89 -12 -12 тепло 988.8 983.0
С 9-18
{18}
200 м ливневой снег {метель} 10/10 600 м
[Cb cap]
-3.2 -4.3 92 -12 -12 тепло 986.5 980.8
С 9-18
{18}
200 м ливневой снег {метель} 10/10 600 м
[Cb cap]
-3.0 -4.1 92 -12 -12 тепло 985.9 980.2
С 11-19
{23}
200 м сильная метель {ливн. осадки} 10/10 600 м
[Cb cap]
-3.7 -4.6 93 -13 -13 тепло 986.9 981.2 -3.7 7 73
С 10-18
{23}
200 м сильная метель {ливн. осадки} н/о -4.0 -4.8 94 -14 -14 тепло 988.8 983.0 -4.2
С 8-14
{20}
200 м сильная метель {ливн. осадки} н/о -3.1 -4.5 90 -12 -12 тепло 992.7 986.9
С 8-17
{22}
200 м сильная метель {ливн. осадки} н/о -3.8 -4.9 92 -12 -12 тепло 996.3 990.5
З 6-11
{19}
200 м сильная метель {ливн. осадки} н/о -4.8 -5.8 93 -13 -13 тепло 1002.6 996.8 -3.0 13
СЗ 8-12
{15}
500 м метель {ливн. осадки} 10/10 600 м
[Cb cap]
-5.8 -6.9 92 -15 -15 тепло 1005.9 1000.0
СЗ 8-12
{14}
500 м метель {ливн. осадки} 10/10 600 м
[Cb cap]
-8.3 -10.0 88 -18 -18 по сезону 1008.2 1002.3
З 6
{12}
500 м метель {ливн. осадки} 10/10 600 м
[Cb cap]
-10.3 -11.8 89 -19 -19 по сезону 1010.3 1004.3
З 7-11
{13}
500 м метель {ливн. осадки} 10/10 600 м
[Cb cap]
-14.6 -16.8 83 -25 -25 по сезону 1012.6 1006.5 -14.6 4 81
З 7-13
{14}
50 км позёмок {ливн. осадки} 3/3 1000 м
[Sc]
-16.5 -19.7 76 -27 -27 по сезону 1013.4 1007.2 -16.5
З 7-12
{15}
50 км позёмок 4/4 1000 м
[Sc]
-15.7 -19.7 71 -26 -26 по сезону 1012.5 1006.3
З 9-14
{16}
50 км позёмок 4/4 1000 м
[Sc]
-15.5 -20.0 68 -27 -27 прохладно 1012.1 1005.9
З 9-13
{14}
20 км позёмок 1/1 600 м
[Sc]
-17.6 -22.6 65 -30 -30 холодно 1012.1 1005.9 -14.6 0.3
СЗ 7
{13}
20 км позёмок ясно -17.7 -24.5 55 -29 -29 прохладно 1011.5 1005.3
Местоположение метеостанции Николаевск-на-Амуре (Хабаровский край, Россия): широта 53.15 долгота 140.70 высота над уровнем моря 46 м.
В архиве по умолчанию представлена погода в Николаевск-на-Амуре за последнюю неделю. Архивные данные за месяц целиком и за предыдущие месяцы, начиная с января 2011 года, Вы можете получить, выбрав интересующий диапазон дат из раскрывающегося списка и нажав кнопку "Найти!".
*Определитесь, кто Вы:
Внимание! Время в таблицах - всемирное. Для получения местного времени необходимо прибавить поправку, которая равна 10 ч.
Смотрите также архив погоды в соседних городах и на ближайших метеорологических станциях:
Партнеры нашего сайта:      
Пояснения к столбцам:
  • Ветер - указаны скорость ветра в м/с - средняя за 10 мин, порывы в срок и между сроками (в фигурных скобках) и направление, откуда дует ветер: С - северный,
  • СВ - северо-восточный, В - восточный, ЮВ - юго-восточный, Ю - южный, ЮЗ - юго-западный, З - западный, СЗ - северо-западный.
  • Видимость - горизонтальная дальность видимости в метрах или километрах. При видимости от 1 до 10 км при отсутствии осадков обычно наблюдается дымка, при ухудшении видимости до 1 км и менее - туман. В сухую погоду видимость может ухудшаться дымом, пылью или мглою.
  • Явления - указаны атмосферные явления, наблюдавшиеся в срок или в последний час перед сроком; фигурными скобками обозначены явления, наблюдавшиеся между сроками (за 1-3 часа до срока); квадратными скобками обозначены град или гололедные отложения с указанием их диаметра в мм.
  • Облачность - указаны через наклонную черту общая и нижняя облачность в баллах и высота нижней границы облаков в метрах; квадратными скобками обозначены формы облаков: Ci - перистые, Cs - перисто-слоистые, Cc - перисто-кучевые, Ac - высококучевые, As - высокослоистые, Sc - слоисто-кучевые, Ns - слоисто-дождевые, Cu - кучевые, Cb - кучево-дождевые. Подробнее классификацию облаков см. в Атласе облаков (PDF).
  • T - Температура воздуха - температура, измеренная на высоте 2 м над землей.
  • Td - Температура точки росы - температура, при понижении до которой содержащийся в воздухе водяной пар достигнет насыщения.
  • f - Относительная влажность воздуха - влажноcть воздуха, измеренная на высоте 2 м над землей.
  • Te - Эффективная температура - температура, которую ощущает одетый по сезону человек в тени. Характеристика душности погоды. При расчете учитывается влияние влажности воздуха и скорости ветра на теплоощущения человека.
  • Tes - Эффективная температура на солнце - температура, которую ощущает человек, с поправкой на солнечный нагрев. Характеристика знойности погоды. Зависит от высоты солнца над горизонтом, облачности и скорости ветра. Ночью, в пасмурную погоду, а также при ветре 12 м/с и более поправка равна нулю.
  • P - Атмосферное давление - приведенное к уровню моря атмосферное давление.
  • Po - Атмосферное давление - измеренное на уровне метеостанции атмосферное давление.
  • Tmin - Минимальная температура - минимум температуры воздуха на высоте 2 м над землей.
  • Tmax - Максимальная температура - максимум температуры воздуха на высоте 2 м над землей.
  • R - Количество осадков - Количество выпавших осадков за период времени, мм. При наведении курсора мыши на число - период времени, за который выпало указанное количество осадков.
  • R24 - Количество осадков - Количество выпавших осадков за 24 часа, мм.
  • S - Снежный покров - Высота снежного покрова, см. При наведении курсора мыши на число - состояние снежного покрова и степень покрытия местности в баллах.